Simultaneous Nadir Overpasses (SNOs) Predictions

Prediction of SNOs between GOES-16 and NOAA-19 Satellite Orbit:

Table of predicted SNOs for the next 14.0 days since TLE Epoch: 1/27/2024
Index Date Time (GOES-16) GOES-16 Lat,Lon NOAA-19 Lat,Lon Distance(km) Time Diff (sec)
1 01/29/2024 02:14:55 -0.01, -75.21 -0.64, -77.85 302.26 80
2 01/30/2024 02:00:04 -0.01, -75.21 0.06, -74.89 36.93 80
3 01/31/2024 01:47:54 -0.01, -75.22 0.77, -71.93 376.26 80
4 02/01/2024 14:22:28 0.02, -75.27 1.00, -79.59 492.60 80
5 02/02/2024 14:10:18 0.01, -75.28 0.30, -76.63 153.21 80
6 02/03/2024 13:55:26 0.01, -75.29 -0.34, -73.66 186.30 80
7 02/06/2024 02:17:51 -0.01, -75.30 -0.69, -78.36 349.01 80
8 02/07/2024 02:05:40 -0.02, -75.31 -0.03, -75.39 9.17 80
9 02/08/2024 01:50:48 -0.01, -75.32 0.64, -72.42 330.41 80
